Photometre #140[NE_1.6] Dunkerque AOT

File : 20220923_140.hum

23/09/2022,06:34:43,TEMP=13.4,BA=5.60,STAT.A=Abs.,ExtBa=14.21
23/09/2022,06:38:50,TEMP=13.6,BA=5.60,STAT.A=Abs.,ExtBa=14.20
23/09/2022,06:43:40,TEMP=13.6,BA=5.44,STAT.A=Abs.,ExtBa=14.21
23/09/2022,06:49:24,TEMP=13.8,BA=5.44,STAT.A=Abs.,ExtBa=14.21
23/09/2022,06:56:20,TEMP=13.8,BA=5.44,STAT.A=Abs.,ExtBa=14.22
23/09/2022,07:04:55,TEMP=13.9,BA=5.60,STAT.A=Abs.,ExtBa=14.23
23/09/2022,07:15:49,TEMP=14.0,BA=5.60,STAT.B=Abs.,ExtBa=14.24
23/09/2022,07:21:03,TEMP=14.1,BA=5.60,STAT.A=Abs.,ExtBa=14.22
23/09/2022,07:26:56,TEMP=14.3,BA=5.60,STAT.A=Abs.,ExtBa=14.22
23/09/2022,07:33:36,TEMP=14.4,BA=5.60,STAT.A=Abs.,ExtBa=14.23
23/09/2022,07:41:13,TEMP=14.5,BA=5.60,STAT.A=Abs.,ExtBa=14.23
23/09/2022,07:50:02,TEMP=14.8,BA=5.60,STAT.C=Abs.,ExtBa=14.24
23/09/2022,08:00:22,TEMP=15.1,BA=5.60,STAT.A=Abs.,ExtBa=14.23
23/09/2022,08:12:42,TEMP=15.6,BA=5.60,STAT.A=Abs.,ExtBa=14.24
23/09/2022,08:27:46,TEMP=16.3,BA=5.60,STAT.A=Abs.,ExtBa=14.23
23/09/2022,08:43:37,TEMP=16.8,BA=5.60,STAT.F,ExtBa=14.23
23/09/2022,08:58:36,TEMP=17.7,BA=5.40,STAT.D=Abs.,ExtBa=12.94
23/09/2022,09:13:36,TEMP=18.2,BA=5.60,STAT.D=Abs.,ExtBa=13.48
23/09/2022,09:28:36,TEMP=19.0,BA=5.60,STAT.D=Abs.,ExtBa=13.74
23/09/2022,09:43:38,TEMP=19.8,BA=5.60,STAT.F,ExtBa=13.89
23/09/2022,09:59:40,TEMP=21.2,BA=5.40,STAT.D=Abs.,ExtBa=13.24
23/09/2022,10:13:36,TEMP=20.9,BA=5.60,STAT.D=Abs.,ExtBa=13.63
23/09/2022,10:28:36,TEMP=20.3,BA=5.60,STAT.D=Abs.,ExtBa=13.84
23/09/2022,10:43:38,TEMP=20.2,BA=5.60,STAT.F,ExtBa=13.98
23/09/2022,10:58:36,TEMP=18.9,BA=5.60,STAT.D=Abs.,ExtBa=14.14
23/09/2022,11:13:36,TEMP=18.8,BA=5.60,STAT.D=Abs.,ExtBa=14.23
23/09/2022,11:28:36,TEMP=19.0,BA=5.60,STAT.D=Abs.,ExtBa=14.24
23/09/2022,11:43:38,TEMP=19.1,BA=5.60,STAT.F,ExtBa=14.24
23/09/2022,11:58:36,TEMP=19.3,BA=5.60,STAT.D=Abs.,ExtBa=14.23
23/09/2022,12:13:36,TEMP=19.4,BA=5.60,STAT.D=Abs.,ExtBa=14.22
23/09/2022,12:28:36,TEMP=19.6,BA=5.60,STAT.D=Abs.,ExtBa=14.20
23/09/2022,12:43:38,TEMP=19.5,BA=5.60,STAT.F,ExtBa=14.20
23/09/2022,12:58:36,TEMP=19.7,BA=5.60,STAT.D=Abs.,ExtBa=14.19
23/09/2022,13:13:36,TEMP=19.8,BA=5.60,STAT.D=Abs.,ExtBa=14.20
23/09/2022,13:28:36,TEMP=19.5,BA=5.60,STAT.D=Abs.,ExtBa=14.19
23/09/2022,13:43:38,TEMP=19.0,BA=5.60,STAT.F,ExtBa=14.19
23/09/2022,13:58:36,TEMP=18.1,BA=5.60,STAT.D=Abs.,ExtBa=14.19
23/09/2022,14:13:17,TEMP=18.1,BA=5.60,STAT.h
23/09/2022,14:28:17,TEMP=18.1,BA=5.60,STAT.h
23/09/2022,14:43:17,TEMP=18.1,BA=5.60,STAT.h
23/09/2022,14:59:08,TEMP=18.1,BA=5.60,STAT.h
23/09/2022,15:14:12,TEMP=18.1,BA=5.60,STAT.h
23/09/2022,15:26:32,TEMP=18.1,BA=5.60,STAT.h
23/09/2022,15:36:52,TEMP=18.1,BA=5.60,STAT.h
23/09/2022,15:45:41,TEMP=18.1,BA=5.60,STAT.h
23/09/2022,15:53:18,TEMP=18.1,BA=5.60,STAT.h
23/09/2022,15:59:58,TEMP=18.1,BA=5.60,STAT.h
23/09/2022,16:05:51,TEMP=18.1,BA=5.60,STAT.h
23/09/2022,16:11:05,TEMP=18.1,BA=5.60,STAT.h
23/09/2022,16:21:59,TEMP=18.1,BA=5.60,STAT.h
23/09/2022,16:30:34,TEMP=18.1,BA=5.60,STAT.h
23/09/2022,16:37:30,TEMP=18.1,BA=5.60,STAT.h
23/09/2022,16:43:14,TEMP=18.1,BA=5.60,STAT.h
23/09/2022,16:48:04,TEMP=18.1,BA=5.60,STAT.h
23/09/2022,16:48:17,TEMP=18.1,BA=5.60,STAT.h
23/09/2022,16:52:11,TEMP=18.1,BA=5.60,STAT.h